When you browse on this site, cookies collect data to enhance your experience and personalize the content and advertising you see.
Visit our Privacy Policy to learn more. By continuing to use the site, you agree to this use of cookies and data.
  • In Hungary
  • List of Countries
  • For 7 days
  • Water Temperature
  • Weather Map
  • News
  • Weather Widgets
  • user-avatar
    Login

    Hourly Weather Bortnikovo

    Today, 20 January, Monday

    Time Temperature Precipitation Wind Pressure Humidity
    00:00 -1°C° 0 mm 4 mps 755 mmHg 90%
    01:00 -1°C° 0 mm 4 mps 755 mmHg 90%
    02:00 -1°C° 0 mm 4 mps 755 mmHg 89%
    03:00 0°C° 0 mm 5 mps 755 mmHg 90%
    04:00 0°C° 0 mm 5 mps 755 mmHg 90%
    05:00 0°C° 0 mm 5 mps 755 mmHg 90%
    06:00 0°C° 0 mm 5 mps 755 mmHg 91%
    07:00 0°C° 0 mm 5 mps 755 mmHg 93%
    08:00 -1°C° 0 mm 5 mps 755 mmHg 94%
    09:00 0°C° 0 mm 5 mps 755 mmHg 94%
    10:00 0°C° 0 mm 5 mps 755 mmHg 93%
    11:00 0°C° 0 mm 5 mps 755 mmHg 93%
    12:00 0°C° 0.1 mm 5 mps 755 mmHg 92%
    13:00 0°C° 0.1 mm 4 mps 755 mmHg 91%
    14:00 0°C° 0.1 mm 4 mps 755 mmHg 90%
    15:00 0°C° 0.1 mm 4 mps 754 mmHg 91%
    16:00 -1°C° 0.1 mm 4 mps 754 mmHg 92%
    17:00 -1°C° 0.1 mm 4 mps 753 mmHg 94%
    18:00 -1°C° 0 mm 5 mps 753 mmHg 93%
    19:00 -1°C° 0 mm 5 mps 753 mmHg 93%
    20:00 -1°C° 0 mm 5 mps 752 mmHg 92%
    21:00 -1°C° 0 mm 5 mps 752 mmHg 89%
    22:00 -1°C° 0 mm 5 mps 751 mmHg 86%
    23:00 -1°C° 0 mm 5 mps 751 mmHg 82%

    Tomorrow, 21 January, Tuesday

    Time Temperature Precipitation Wind Pressure Humidity
    00:00 -2°C° 0.1 mm 5 mps 750 mmHg 85%
    01:00 -2°C° 0.1 mm 5 mps 750 mmHg 89%
    02:00 -2°C° 0.1 mm 5 mps 749 mmHg 92%
    03:00 -2°C° 0.4 mm 5 mps 748 mmHg 93%
    04:00 -2°C° 0.4 mm 5 mps 747 mmHg 94%
    05:00 -2°C° 0.4 mm 5 mps 746 mmHg 96%
    06:00 -2°C° 0.7 mm 6 mps 745 mmHg 94%
    07:00 -2°C° 0.7 mm 6 mps 745 mmHg 93%
    08:00 -1°C° 0.7 mm 6 mps 744 mmHg 91%
    09:00 -1°C° 0.1 mm 6 mps 743 mmHg 90%
    10:00 +1°C° 0.1 mm 6 mps 742 mmHg 89%
    11:00 +2°C° 0.1 mm 6 mps 742 mmHg 88%
    12:00 +2°C° 0.1 mm 6 mps 741 mmHg 88%
    13:00 +2°C° 0.1 mm 6 mps 741 mmHg 89%
    14:00 +3°C° 0.1 mm 5 mps 741 mmHg 89%
    15:00 +3°C° 0.1 mm 5 mps 740 mmHg 89%
    16:00 +3°C° 0.1 mm 5 mps 739 mmHg 90%
    17:00 +3°C° 0.1 mm 5 mps 739 mmHg 90%
    18:00 +2°C° 0.8 mm 5 mps 738 mmHg 92%
    19:00 +3°C° 0.8 mm 4 mps 738 mmHg 94%
    20:00 +3°C° 0.8 mm 4 mps 737 mmHg 96%
    21:00 +1°C° 0.7 mm 4 mps 737 mmHg 93%
    22:00 +1°C° 0.7 mm 4 mps 737 mmHg 90%
    23:00 0°C° 0.7 mm 5 mps 737 mmHg 87%

    Day after tomorrow, 22 January, Wednesday

    Time Temperature Precipitation Wind Pressure Humidity
    00:00 -1°C° 0 mm 5 mps 737 mmHg 85%
    01:00 -1°C° 0 mm 4 mps 738 mmHg 83%
    02:00 -2°C° 0 mm 4 mps 738 mmHg 81%
    03:00 -2°C° 0 mm 4 mps 738 mmHg 79%
    04:00 -2°C° 0 mm 5 mps 737 mmHg 78%
    05:00 -4°C° 0 mm 5 mps 737 mmHg 76%
    06:00 -4°C° 0 mm 5 mps 737 mmHg 77%
    07:00 -4°C° 0 mm 5 mps 736 mmHg 78%
    08:00 -4°C° 0 mm 5 mps 736 mmHg 79%
    09:00 -4°C° 0.1 mm 5 mps 736 mmHg 79%
    10:00 -2°C° 0.1 mm 5 mps 736 mmHg 79%
    11:00 -3°C° 0.1 mm 6 mps 736 mmHg 80%
    12:00 -2°C° 0.3 mm 5 mps 735 mmHg 77%
    13:00 -2°C° 0.3 mm 5 mps 735 mmHg 75%
    14:00 -2°C° 0.3 mm 5 mps 735 mmHg 72%
    15:00 -3°C° 0 mm 4 mps 735 mmHg 74%
    16:00 -3°C° 0 mm 4 mps 735 mmHg 76%
    17:00 -4°C° 0 mm 4 mps 735 mmHg 79%
    18:00 -4°C° 0 mm 4 mps 736 mmHg 79%
    19:00 -4°C° 0 mm 4 mps 736 mmHg 80%
    20:00 -4°C° 0 mm 4 mps 736 mmHg 81%
    21:00 -5°C° 0 mm 4 mps 736 mmHg 81%
    22:00 -5°C° 0 mm 4 mps 737 mmHg 81%
    23:00 -5°C° 0 mm 4 mps 737 mmHg 81%

    23 January, Thursday

    Time Temperature Precipitation Wind Pressure Humidity
    00:00 -6°C° 0.1 mm 5 mps 738 mmHg 78%
    01:00 -6°C° 0.1 mm 5 mps 738 mmHg 74%
    02:00 -6°C° 0.1 mm 6 mps 739 mmHg 71%
    03:00 -8°C° 0 mm 6 mps 739 mmHg 69%
    04:00 -9°C° 0 mm 6 mps 739 mmHg 68%
    05:00 -9°C° 0 mm 6 mps 740 mmHg 66%
    06:00 -9°C° 0 mm 6 mps 740 mmHg 64%
    07:00 -10°C° 0 mm 6 mps 741 mmHg 62%
    08:00 -10°C° 0 mm 6 mps 741 mmHg 60%
    09:00 -10°C° 0 mm 6 mps 742 mmHg 63%
    10:00 -9°C° 0 mm 6 mps 742 mmHg 66%
    11:00 -9°C° 0 mm 6 mps 743 mmHg 69%
    12:00 -9°C° 0 mm 6 mps 743 mmHg 65%
    13:00 -9°C° 0 mm 6 mps 744 mmHg 61%
    14:00 -9°C° 0 mm 6 mps 744 mmHg 57%
    15:00 -8°C° 0 mm 5 mps 745 mmHg 59%
    16:00 -8°C° 0 mm 5 mps 745 mmHg 61%
    17:00 -9°C° 0 mm 4 mps 746 mmHg 63%
    18:00 -9°C° 0 mm 4 mps 746 mmHg 64%
    19:00 -9°C° 0 mm 4 mps 746 mmHg 66%
    20:00 -8°C° 0 mm 3 mps 747 mmHg 68%
    21:00 -8°C° 0 mm 3 mps 747 mmHg 70%
    22:00 -9°C° 0 mm 3 mps 747 mmHg 72%
    23:00 -9°C° 0 mm 3 mps 747 mmHg 74%

    24 January, Friday

    Time Temperature Precipitation Wind Pressure Humidity
    00:00 -9°C° 0 mm 3 mps 747 mmHg 73%
    01:00 -9°C° 0 mm 3 mps 746 mmHg 72%
    02:00 -8°C° 0 mm 2 mps 746 mmHg 70%
    03:00 -8°C° 0 mm 3 mps 745 mmHg 72%
    04:00 -7°C° 0 mm 3 mps 744 mmHg 73%
    05:00 -7°C° 0 mm 3 mps 743 mmHg 75%
    06:00 -7°C° 0.3 mm 4 mps 742 mmHg 81%
    07:00 -7°C° 0.3 mm 4 mps 741 mmHg 87%
    08:00 -7°C° 0.3 mm 5 mps 740 mmHg 93%
    09:00 -6°C° 0.3 mm 5 mps 739 mmHg 92%
    10:00 -5°C° 0.3 mm 5 mps 739 mmHg 91%
    11:00 -4°C° 0.3 mm 5 mps 738 mmHg 90%
    12:00 -2°C° 0.2 mm 5 mps 737 mmHg 91%
    13:00 -1°C° 0.2 mm 5 mps 737 mmHg 91%
    14:00 0°C° 0.2 mm 5 mps 736 mmHg 91%
    15:00 -1°C° 0.1 mm 5 mps 737 mmHg 88%
    16:00 -2°C° 0.1 mm 5 mps 737 mmHg 85%
    17:00 -4°C° 0.1 mm 5 mps 738 mmHg 82%
    18:00 -4°C° 0 mm 5 mps 738 mmHg 79%
    19:00 -4°C° 0 mm 5 mps 739 mmHg 77%
    20:00 -4°C° 0 mm 5 mps 739 mmHg 74%
    21:00 -5°C° 0 mm 5 mps 740 mmHg 75%
    22:00 -5°C° 0 mm 5 mps 740 mmHg 76%
    23:00 -4°C° 0 mm 4 mps 741 mmHg 77%

    25 January, Saturday

    Time Temperature Precipitation Wind Pressure Humidity
    00:00 -4°C° 0 mm 4 mps 741 mmHg 79%
    01:00 -4°C° 0 mm 4 mps 741 mmHg 81%
    02:00 -4°C° 0 mm 4 mps 741 mmHg 83%
    03:00 -4°C° 0 mm 4 mps 742 mmHg 84%
    04:00 -5°C° 0 mm 4 mps 742 mmHg 85%
    05:00 -5°C° 0 mm 4 mps 742 mmHg 87%
    06:00 -5°C° 0 mm 3 mps 742 mmHg 88%
    07:00 -5°C° 0 mm 3 mps 743 mmHg 90%
    08:00 -6°C° 0 mm 3 mps 743 mmHg 91%
    09:00 -5°C° 0 mm 3 mps 743 mmHg 88%
    10:00 -4°C° 0 mm 3 mps 743 mmHg 85%
    11:00 -2°C° 0 mm 3 mps 744 mmHg 82%
    12:00 -2°C° 0 mm 3 mps 743 mmHg 85%
    13:00 -2°C° 0 mm 4 mps 743 mmHg 87%
    14:00 -2°C° 0 mm 4 mps 743 mmHg 90%
    15:00 -1°C° 0 mm 4 mps 743 mmHg 90%
    16:00 -1°C° 0 mm 4 mps 743 mmHg 89%
    17:00 0°C° 0 mm 3 mps 743 mmHg 89%
    18:00 0°C° 0 mm 3 mps 743 mmHg 88%
    19:00 0°C° 0 mm 3 mps 743 mmHg 88%
    20:00 0°C° 0 mm 3 mps 743 mmHg 88%
    21:00 0°C° 0 mm 3 mps 743 mmHg 90%
    22:00 +1°C° 0 mm 2 mps 743 mmHg 91%
    23:00 +1°C° 0 mm 2 mps 744 mmHg 93%
    Show more